Regional Weather Roundup
Issued by NWS

Home | Current Version | Previous Version | Text Only | Print | Product List | Glossary On
Versions: 1 2 3 4 5 6 7 8 9 10 11 12 13 14 15 16 17 18 19 20 21 22 23 24 25 26 27 28 29 30 31 32 33 34 35 36 37 38 39 40 41 42 43 44 45 46 47 48 49 50
000
ASUS45 KREV 011310
RWRNV
NEVADA REGIONAL WEATHER ROUNDUP
NATIONAL WEATHER SERVICE RENO NV
600 AM PDT SAT OCT 01 2016

NOTE: "FAIR" INDICATES FEW OR NO CLOUDS BELOW 12,000 FEET WITH NO
SIGNIFICANT WEATHER AND/OR OBSTRUCTIONS TO VISIBILITY.

NVZ001-003-004-011400-
WESTERN NEVADA

CITY           SKY/WX    TMP DP  RH WIND       PRES   REMARKS
RENO           PTCLDY    55  30  38 N5        30.06R
CARSON CITY    FAIR      57  28  33 SW6       30.07S
MINDEN         FAIR      55  28  35 W7        30.07S
PYRAMID LAKE     N/A     59 N/A N/A SW5         N/A
FALLON         CLEAR     46  28  49 E5        30.02R
LOVELOCK       CLEAR     57  30  35 SW8G18    30.01S
HAWTHORNE        N/A    N/A N/A N/A MISG        N/A
$$

NVZ002-CAZ072-073-011400-
NORTHERN AND CENTRAL SIERRA

CITY           SKY/WX    TMP DP  RH WIND       PRES   REMARKS
S. LAKE TAHOE  CLEAR     49  31  49 S17G24    30.11S
TRUCKEE        CLEAR     43  18  36 SW3       30.13S
SQUAW VLY 8000 NOT AVBL
SUSANVILLE     CLEAR     43  23  45 W5        30.10R
MAMMOTH LAKES  FAIR      47  27  45 SE8       30.18R
BRIDGEPORT       N/A     52  29  41 SW12G22   30.11S
$$

NVZ030-031-036-011400-
NORTHERN NEVADA

CITY           SKY/WX    TMP DP  RH WIND       PRES   REMARKS
ELKO           PTCLDY    45  41  86 CALM      30.04S
WINNEMUCCA     CLEAR     49  28  44 CALM      30.03R
WENDOVER       PTCLDY    59  45  58 NE12      30.02S
$$

NVZ035-037-011400-
CENTRAL NEVADA

CITY           SKY/WX    TMP DP  RH WIND       PRES   REMARKS
ELY            PTCLDY    51  39  63 S10       30.15F
EUREKA           N/A     56  35  45 S14       30.09S
$$

NVZ013-014-011400-
SOUTH CENTRAL NEVADA

CITY           SKY/WX    TMP DP  RH WIND       PRES   REMARKS
TONOPAH        CLEAR     48  34  58 N6        30.10R
$$

NVZ017-020-022-011400-
SOUTHERN NEVADA

CITY           SKY/WX    TMP DP  RH WIND       PRES   REMARKS
LAS VEGAS      PTCLDY    76  42  29 S8        29.97R
N. LAS VEGAS   CLEAR     70  47  43 CALM      29.96R
NELLIS AFB     CLEAR     73  49  42 N5        29.95R
HENDERSON      CLEAR     72  44  36 S14       30.00S
MERCURY        CLEAR     67  40  37 CALM      30.00S
$$



USA.gov is the U.S. government's official web portal to all federal, state and local government web resources and services.